Regional Weather Roundup
Issued by NWS

Home | Current Version | Previous Version | Graphics & Text | Print | Product List | Glossary On
Versions: 1 2 3 4 5 6 7 8 9 10 11 12 13 14 15 16 17 18 19 20 21 22 23 24 25 26 27 28 29 30 31 32 33 34 35 36 37 38 39 40 41 42 43 44 45 46 47 48 49 50
000
ASUS45 KBOU 222307
RWRCO

WEATHER ROUNDUP FOR COLORADO
NATIONAL WEATHER SERVICE DENVER/BOULDER CO
500 PM MDT THU JUN 22 2017

NOTE: "FAIR" INDICATES FEW OR NO CLOUDS BELOW 12000 FEET WITH NO
SIGNIFICANT WEATHER AND/OR OBSTRUCTIONS TO VISIBILITY.

COZ001>005-013-030-031-230000-
...NORTHWEST COLORADO...

CITY           SKY/WX    TMP DP  RH WIND       PRES   REMARKS
CRAIG          FAIR      88  33  14 NW16G22   29.96F
HAYDEN         FAIR      86  34  15 W14       30.00R
MEEKER         TSTM      77  45  32 SW21G40   30.01R
RABBIT EARS PA FAIR      64  36  34 NW8G21    30.34F
STEAMBOAT SPGS FAIR      82  36  19 W12       30.02S
WALDEN         FAIR      79  23  12 W21G32    30.13F
$$

COZ006>008-011-230000-
...WEST CENTRAL VALLEYS...

CITY           SKY/WX    TMP DP  RH WIND       PRES   REMARKS
GRAND JUNCTION FAIR      94  32  11 N20G31    29.87R
MONTROSE       FAIR      97  15   5 W17G30    29.91F
EAGLE          PTSUNNY   79  36  21 NE7       30.05F
RIFLE          FAIR      88  29  12 W29       29.96R
DELTA          FAIR     101  26   7 NW21      29.87R
NUCLA          FAIR      95  16   5 NW16G28   29.99R
$$

COZ017>023-064>068-230000-
...SOUTHWEST COLORADO...

CITY           SKY/WX    TMP DP  RH WIND       PRES   REMARKS
DURANGO        FAIR      93   6   4 W23G29    30.02F
CORTEZ         FAIR      97   5   3 W13G25    29.95F
PAGOSA SPRINGS FAIR      88  13   6 W21G32    30.11S
TELLURIDE      FAIR      80  24  13 SW7       30.27F
WOLF CREEK PAS FAIR      64  27  24 SW10G24   30.53S
$$

COZ009-010-012-014-032>034-037-058>063-230000-
...CENTRAL COLORADO...

CITY           SKY/WX    TMP DP  RH WIND       PRES   REMARKS
ASPEN          FAIR      78  29  16 NW15G26   30.12S
BUENA VISTA    FAIR      85  16   8 NW16      30.09S
COPPER MTN     PTSUNNY   59  27  29 NW12G23   30.49S
BERTHOUD PASS  RAIN      41  30  65 NW33G53   30.51F
COTTONWOOD PAS FAIR      81   1   4 N3G17     30.27R
GUNNISON       FAIR      85  28  12 W13G29    30.08F
KREMMLING      NOT AVBL
LEADVILLE      FAIR      69  26  20 NW9       30.30R
MONARCH PASS   FAIR      66  18  15 W36G49    30.55F
SALIDA         FAIR      89  19   7 W18G29    30.12R
SUNLIGHT       CLOUDY    59  28  31 W13G25    30.41S
WILKERSON PASS PTSUNNY   59  39  47 NE16G25   30.44R
$$

COZ069>075-230000-
...SAN LUIS VALLEY/SANGRE DE CRISTO MOUNTAINS...

CITY           SKY/WX    TMP DP  RH WIND       PRES   REMARKS
ALAMOSA        FAIR      81  41  24 E10       30.08F
DEL NORTE      FAIR      84  25  11 W12       30.09F
LA VETA PASS   FAIR      68  30  24 MISG      30.43R
SAGUACHE       FAIR      88  25  10 NW16G24   30.08F
$$

COZ035-036-038>040-230000-
...NORTHERN COLORADO FRONT RANGE...

CITY           SKY/WX    TMP DP  RH WIND       PRES   REMARKS
DENVER INTL AP PTSUNNY   78  51  38 NE9       29.98R
DMNS CITY PARK   N/A     77  44  31 NW9G17    29.99R
AURORA         PTSUNNY   74  51  44 NE13G25   29.99R
FRONT RANGE AP FAIR      73  59  60 E5        29.99S
ERIE MUNI ARPT LGT RAIN  75  48  38 W9        29.98S
BOULDER MUN AP FAIR      75  46  35 SW7       29.99R
CENTENNIAL     CLOUDY    76  48  37 N13       30.00F
BROOMFIELD     FAIR      73  46  38 W8        30.02R
FORT COLLINS   FAIR      79  44  28 E7        29.97R
LONGMONT       FAIR      73  60  64 NW6       30.00R
$$

COZ041-046-047-076>085-087-088-230000-
...PIKES PEAK/PALMER DIVIDE AND SOUTHERN FOOTHILLS...

CITY           SKY/WX    TMP DP  RH WIND       PRES   REMARKS
COLO. SPRINGS  PTSUNNY   84  43  23 E20       29.98R
A. F. ACADEMY  FAIR      81  46  29 N31G43    30.00R
SCHRIEVER AFB  NOT AVBL
CHEYENNE MTN   NOT AVBL
ELLICOTT       FAIR     N/A N/A N/A NE16      29.95F
FALCON           N/A     82  38  20 E12G18    30.05R
FORT CARSON    FAIR      83  45  25 NE15      29.94R
LIMON          FAIR      82  49  31 NE13      29.95F
MONUMENT HILL  FAIR      73  45  35 N21G33    30.10R
CANON CITY     SUNNY     90  45  20 NE20G28   29.85R
WALSENBURG     NOT AVBL
TRINIDAD       FAIR      90  34  13 SW15      29.89F
$$

COZ042>045-048>051-090-091-230000-
...NORTHEAST COLORADO...

CITY           SKY/WX    TMP DP  RH WIND       PRES   REMARKS
GREELEY ARPT   FAIR      80  46  30 NE7       29.94F
AKRON          LGT RAIN  78  51  38 N12       29.95R
BURLINGTON     FAIR      83  56  39 N10       29.88R
WRAY           FAIR      84  52  32 NE16G24   29.86R
YUMA           FAIR      81  54  39 NE14G21   29.89R
STERLING       FAIR      79  55  44 E12       29.89R
HOLYOKE        NOT AVBL
FORT MORGAN    FAIR      78  47  33 NE12      29.93F
$$

COZ086-089-092>099-230000-
...SOUTHEAST COLORADO...

CITY           SKY/WX    TMP DP  RH WIND       PRES   REMARKS
PUEBLO         FAIR      93  43  17 NE23      29.79F
LA JUNTA       FAIR      87  51  28 NE35G46   29.80R
LAMAR          FAIR      94  49  21 NE20G30   29.74R
SPRINGFIELD      N/A     99  37  11 NE7       29.74F
$$



USA.gov is the U.S. government's official web portal to all federal, state and local government web resources and services.